Greenville Downtown, SC

2:12 PM EST on February 21, 2018 (GMT -0500)
Greenville Downtown

Weather History for KGMU - December, 2012

Change the Weather History Date:

Friday, December 14, 2012

  Actual Average Record
Temperature  
Mean Temperature 44 °F -  
Max Temperature 59 °F 51 °F 69 °F (2014)
Min Temperature 30 °F 34 °F 12 °F (2010)
Degree Days  
Heating Degree Days 20    
Moisture  
Dew Point 26 °F    
Average Humidity 51    
Maximum Humidity 79    
Minimum Humidity 28    
Precipitation  
Precipitation 0.00 in - - ()
Sea Level Pressure  
Sea Level Pressure 30.32 in    
Wind  
Wind Speed 1 mph (WNW)    
Max Wind Speed 6 mph    
Max Gust Speed -    
Visibility 10 miles    
Events      
Averages and records for this station are not official NWS values.
T = Trace of Precipitation, MM = Missing Value Source: NWS Daily Summary

Daily Weather History Graph

Daily Weather History Graph

Search for Another Location

Airport or City:

Trip Planner

Search our weather history database for the weather conditions in past years. The results will help you decide how hot, cold, wet, or windy it might be!

Date:

Astronomy

Dec. 14, 2012 Rise Set
Actual Time 7:29 AM EST 5:19 PM EST
Civil Twilight 7:01 AM EST 5:47 PM EST
Nautical Twilight 6:29 AM EST 6:19 PM EST
Astronomical Twilight 5:58 AM EST 6:49 PM EST
Moon 8:34 AM EST (12/14) 7:08 PM EST (12/14)
Length of Visible Light 10h 46m
Length of Day
9h 50m
Waxing Crescent, 3% of the Moon is Illuminated
Dec 14
Waxing Crescent
Dec 20
First Quarter
Dec 28
Full
Jan 4
Last Quarter
Jan 11
New

Hourly Weather History & Observations

Time (EST) Temp. Windchill Dew Point Humidity Pressure Visibility Wind Dir Wind Speed Gust Speed Precip Events Conditions
12:53 AM 39.0 °F 36.8 °F 21.9 °F 50% 30.36 in 10.0 mi NNE 3.5 mph - N/A   Clear
1:53 AM 34.0 °F - 25.0 °F 70% 30.36 in 10.0 mi Calm Calm - N/A   Clear
2:53 AM 37.0 °F 33.3 °F 21.9 °F 54% 30.35 in 10.0 mi North 4.6 mph - N/A   Clear
3:53 AM 32.0 °F - 24.1 °F 73% 30.35 in 10.0 mi Calm Calm - N/A   Clear
4:53 AM 32.0 °F - 24.1 °F 73% 30.36 in 10.0 mi Calm Calm - N/A   Clear
5:53 AM 32.0 °F - 24.1 °F 73% 30.37 in 10.0 mi Calm Calm - N/A   Clear
6:53 AM 32.0 °F - 24.1 °F 73% 30.37 in 10.0 mi Calm Calm - N/A   Clear
7:53 AM 30.0 °F - 24.1 °F 79% 30.40 in 10.0 mi Calm Calm - N/A   Clear
8:53 AM 37.0 °F - 27.0 °F 67% 30.41 in 10.0 mi Calm Calm - N/A   Clear
9:53 AM 45.0 °F - 23.0 °F 42% 30.40 in 10.0 mi Calm Calm - N/A   Clear
10:53 AM 48.9 °F - 24.1 °F 38% 30.39 in 10.0 mi SW 5.8 mph - N/A   Clear
11:53 AM 52.0 °F - 25.0 °F 35% 30.36 in 10.0 mi WNW 4.6 mph - N/A   Clear
12:53 PM 55.0 °F - 25.0 °F 31% 30.31 in 10.0 mi Calm Calm - N/A   Clear
1:53 PM 55.9 °F - 26.1 °F 32% 30.28 in 10.0 mi Calm Calm - N/A   Clear
2:53 PM 57.9 °F - 26.1 °F 30% 30.25 in 10.0 mi Variable 3.5 mph - N/A   Clear
3:53 PM 59.0 °F - 26.1 °F 28% 30.25 in 10.0 mi Calm Calm - N/A   Clear
4:53 PM 57.0 °F - 25.0 °F 29% 30.25 in 10.0 mi Calm Calm - N/A   Clear
5:53 PM 52.0 °F - 27.0 °F 38% 30.27 in 10.0 mi SW 3.5 mph - N/A   Clear
6:53 PM 51.1 °F - 28.0 °F 41% 30.27 in 10.0 mi Calm Calm - N/A   Clear
7:53 PM 48.0 °F - 28.0 °F 46% 30.26 in 10.0 mi Calm Calm - N/A   Clear
8:53 PM 46.0 °F - 28.0 °F 50% 30.27 in 10.0 mi Calm Calm - N/A   Clear
9:53 PM 44.1 °F - 30.0 °F 58% 30.27 in 10.0 mi Calm Calm - N/A   Clear
10:53 PM 43.0 °F - 30.0 °F 60% 30.26 in 10.0 mi Calm Calm - N/A   Clear
11:53 PM 43.0 °F - 30.0 °F 60% 30.26 in 10.0 mi Calm Calm - N/A   Clear